Weather History for KCSQ - September, 2012

Change the Weather History Date:

Saturday, September 1, 2012

  Actual Average Record
Temperature  
Mean Temperature 73 °F -  
Max Temperature 80 °F 83 °F 95 °F (1975)
Min Temperature 64 °F 60 °F 36 °F (1949)
Cooling Degree Days 8    
Growing Degree Days 23 (Base 50)    
Moisture  
Dew Point 65 °F    
Average Humidity 76    
Maximum Humidity 88    
Minimum Humidity 58    
Precipitation  
Precipitation 0.00 in - - ()
Sea Level Pressure  
Sea Level Pressure 29.99 in    
Wind  
Wind Speed 10 mph (NNE)    
Max Wind Speed 20 mph    
Max Gust Speed 26 mph    
Visibility 10 miles    
Events      
Averages and records for this station are not official NWS values.
T = Trace of Precipitation, MM = Missing Value Source: NWS Daily Summary

Daily Weather History Graph

Daily Weather History Graph

Search for Another Location

Airport or City:

Trip Planner

Search our weather history database for the weather conditions in past years. The results will help you decide how hot, cold, wet, or windy it might be!

Date:

Astronomy

Sep. 01, 2012 Rise Set
Actual Time 6:44 AM CDT 7:49 PM CDT
Civil Twilight 6:16 AM CDT 8:17 PM CDT
Nautical Twilight 5:42 AM CDT 8:50 PM CDT
Astronomical Twilight 5:07 AM CDT 9:25 PM CDT
Moon 8:04 PM CDT 7:54 AM CDT
Length of Visible Light 14h 00m
Length of Day
13h 04m
Full, 99% of the Moon is Illuminated
Sep 1
Full
Sep 8
Last Quarter
Sep 15
New
Sep 22
First Quarter
Sep 29
Full

Hourly Weather History & Observations

Time (CDT) Temp. Heat Index Dew Point Humidity Pressure Visibility Wind Dir Wind Speed Gust Speed Precip Events Conditions
12:15 AM 73.4 °F - 66.2 °F 78% 30.00 in 10.0 mi ENE 9.2 mph 16.1 mph N/A   Clear
12:35 AM 73.4 °F - 64.4 °F 73% 30.00 in 10.0 mi ENE 11.5 mph 16.1 mph N/A   Clear
12:55 AM 73.4 °F - 66.2 °F 78% 29.99 in 10.0 mi NE 11.5 mph 16.1 mph N/A   Clear
1:15 AM 73.4 °F - 66.2 °F 78% 29.99 in 10.0 mi Calm Calm - N/A   Clear
1:35 AM 73.4 °F - 66.2 °F 78% 29.98 in 10.0 mi NE 9.2 mph - N/A   Clear
1:55 AM 73.4 °F - 66.2 °F 78% 29.98 in 10.0 mi NE 9.2 mph - N/A   Clear
2:15 AM 73.4 °F - 64.4 °F 73% 29.97 in 10.0 mi NE 11.5 mph - N/A   Clear
2:35 AM 73.4 °F - 66.2 °F 78% 29.97 in 10.0 mi NE 9.2 mph - N/A   Clear
2:55 AM 71.6 °F - 66.2 °F 83% 29.97 in 10.0 mi NNE 8.1 mph - N/A   Clear
3:15 AM 71.6 °F - 66.2 °F 83% 29.97 in 10.0 mi NE 10.4 mph - N/A   Clear
3:35 AM 71.6 °F - 66.2 °F 83% 29.97 in 10.0 mi NNE 8.1 mph - N/A   Clear
3:55 AM 71.6 °F - 66.2 °F 83% 29.97 in 10.0 mi NNE 11.5 mph 17.3 mph N/A   Clear
4:15 AM 71.6 °F - 66.2 °F 83% 29.97 in 10.0 mi NNE 12.7 mph - N/A   Clear
4:35 AM 71.6 °F - 66.2 °F 83% 29.97 in 10.0 mi NNE 10.4 mph - N/A   Clear
4:55 AM 71.6 °F - 66.2 °F 83% 29.97 in 10.0 mi NNE 6.9 mph - N/A   Mostly Cloudy
5:15 AM 71.6 °F - 66.2 °F 83% 29.97 in 10.0 mi NNE 9.2 mph - N/A   Mostly Cloudy
5:35 AM 71.6 °F - 66.2 °F 83% 29.97 in 10.0 mi North 10.4 mph 16.1 mph N/A   Scattered Clouds
5:55 AM 71.6 °F - 66.2 °F 83% 29.97 in 10.0 mi North 11.5 mph - N/A   Clear
6:15 AM 71.6 °F - 66.2 °F 83% 29.97 in 10.0 mi North 12.7 mph - N/A   Clear
6:35 AM 71.6 °F - 66.2 °F 83% 29.98 in 10.0 mi NNE 13.8 mph - N/A   Clear
6:55 AM 71.6 °F - 66.2 °F 83% 29.98 in 10.0 mi NNE 12.7 mph 18.4 mph N/A   Clear
7:15 AM 71.6 °F - 66.2 °F 83% 29.98 in 10.0 mi North 11.5 mph 16.1 mph N/A   Clear
7:35 AM 71.6 °F - 66.2 °F 83% 29.99 in 10.0 mi North 11.5 mph - N/A   Scattered Clouds
7:55 AM 71.6 °F - 66.2 °F 83% 29.99 in 10.0 mi North 11.5 mph - N/A   Scattered Clouds
8:15 AM 71.6 °F - 66.2 °F 83% 29.99 in 10.0 mi NNE 8.1 mph - N/A   Clear
8:35 AM 71.6 °F - 68.0 °F 88% 30.00 in 10.0 mi NNE 10.4 mph - N/A   Clear
8:55 AM 71.6 °F - 68.0 °F 88% 30.00 in 10.0 mi NNE 8.1 mph - N/A   Clear
9:15 AM 71.6 °F - 68.0 °F 88% 29.99 in 10.0 mi NNE 9.2 mph - N/A   Clear
9:35 AM 71.6 °F - 68.0 °F 88% 29.99 in 7.0 mi North 12.7 mph 19.6 mph N/A   Clear
9:55 AM 73.4 °F - 68.0 °F 83% 30.00 in 7.0 mi NNE 13.8 mph 18.4 mph N/A   Scattered Clouds
10:15 AM 73.4 °F - 68.0 °F 83% 30.00 in 10.0 mi NNE 10.4 mph - N/A   Mostly Cloudy
10:35 AM 73.4 °F - 68.0 °F 83% 30.00 in 7.0 mi NNE 12.7 mph 20.7 mph N/A   Overcast
10:55 AM 73.4 °F - 68.0 °F 83% 30.01 in 10.0 mi NNE 16.1 mph - N/A   Overcast
11:15 AM 75.2 °F - 69.8 °F 83% 30.01 in 10.0 mi NNE 11.5 mph 17.3 mph N/A   Mostly Cloudy
11:35 AM 75.2 °F - 69.8 °F 83% 30.01 in 10.0 mi NNE 16.1 mph 19.6 mph N/A   Mostly Cloudy
11:55 AM 75.2 °F - 69.8 °F 83% 30.01 in 10.0 mi NNE 15.0 mph 18.4 mph N/A   Mostly Cloudy
12:15 PM 75.2 °F - 68.0 °F 78% 30.01 in 10.0 mi NNE 11.5 mph 18.4 mph N/A   Mostly Cloudy
12:35 PM 75.2 °F - 68.0 °F 78% 30.00 in 10.0 mi NNE 15.0 mph 18.4 mph N/A   Scattered Clouds
12:55 PM 75.2 °F - 66.2 °F 73% 30.00 in 10.0 mi NE 11.5 mph 20.7 mph N/A   Clear
1:15 PM 77.0 °F - 66.2 °F 69% 30.00 in 10.0 mi NNE 16.1 mph - N/A   Scattered Clouds
1:35 PM 77.0 °F - 66.2 °F 69% 30.00 in 10.0 mi NNE 15.0 mph 19.6 mph N/A   Clear
1:55 PM 77.0 °F - 66.2 °F 69% 30.00 in 10.0 mi NNE 15.0 mph - N/A   Clear
2:15 PM 80.6 °F 82.7 °F 66.2 °F 61% 29.99 in 10.0 mi NNE 19.6 mph - N/A   Clear
2:35 PM 78.8 °F - 66.2 °F 65% 29.99 in 10.0 mi NE 17.3 mph 24.2 mph N/A   Clear
2:55 PM 78.8 °F - 66.2 °F 65% 29.98 in 10.0 mi NNE 13.8 mph 25.3 mph N/A   Clear
3:15 PM 78.8 °F - 66.2 °F 65% 29.98 in 10.0 mi NE 16.1 mph 26.5 mph N/A   Clear
3:35 PM 78.8 °F - 64.4 °F 61% 29.98 in 10.0 mi NE 15.0 mph - N/A   Clear
3:55 PM 78.8 °F - 64.4 °F 61% 29.97 in 10.0 mi NE 12.7 mph - N/A   Clear
4:15 PM 78.8 °F - 64.4 °F 61% 29.97 in 10.0 mi NNE 12.7 mph - N/A   Clear
4:35 PM 78.8 °F - 64.4 °F 61% 29.97 in 10.0 mi NNE 11.5 mph 16.1 mph N/A   Clear
4:55 PM 78.8 °F - 64.4 °F 61% 29.97 in 10.0 mi NNE 11.5 mph 16.1 mph N/A   Clear
5:35 PM 78.8 °F - 64.4 °F 61% 29.97 in 10.0 mi North 16.1 mph - N/A   Clear
5:55 PM 80.6 °F 82.3 °F 64.4 °F 58% 29.97 in 10.0 mi NNE 13.8 mph 18.4 mph N/A   Clear
6:15 PM 80.6 °F 82.3 °F 64.4 °F 58% 29.97 in 10.0 mi NNE 13.8 mph - N/A   Clear
6:35 PM 78.8 °F - 64.4 °F 61% 29.97 in 10.0 mi NNE 15.0 mph 18.4 mph N/A   Clear
6:55 PM 78.8 °F - 64.4 °F 61% 29.97 in 10.0 mi NNE 12.7 mph - N/A   Clear
7:15 PM 77.0 °F - 64.4 °F 65% 29.97 in 10.0 mi NE 9.2 mph 16.1 mph N/A   Clear
7:35 PM 75.2 °F - 62.6 °F 65% 29.97 in 10.0 mi NE 9.2 mph - N/A   Clear
7:55 PM 73.4 °F - 62.6 °F 69% 29.98 in 10.0 mi NE 6.9 mph - N/A   Clear
8:15 PM 73.4 °F - 62.6 °F 69% 29.98 in 10.0 mi NNE 5.8 mph - N/A   Clear
8:35 PM 71.6 °F - 62.6 °F 73% 29.99 in 10.0 mi Calm Calm - N/A   Clear
8:55 PM 69.8 °F - 62.6 °F 78% 30.00 in 10.0 mi Calm Calm - N/A   Clear
9:15 PM 69.8 °F - 62.6 °F 78% 30.00 in 10.0 mi Calm Calm - N/A   Clear
9:35 PM 68.0 °F - 62.6 °F 83% 30.00 in 10.0 mi Calm Calm - N/A   Clear
9:55 PM 68.0 °F - 60.8 °F 78% 30.00 in 10.0 mi NNE 5.8 mph - N/A   Clear
10:15 PM 68.0 °F - 60.8 °F 78% 30.00 in 10.0 mi NNE 6.9 mph - N/A   Clear
10:35 PM 66.2 °F - 60.8 °F 83% 30.00 in 10.0 mi NNE 6.9 mph - N/A   Clear
10:55 PM 66.2 °F - 60.8 °F 83% 30.00 in 10.0 mi Calm Calm - N/A   Clear
11:15 PM 66.2 °F - 59.0 °F 78% 30.00 in 10.0 mi NNE 6.9 mph - N/A   Clear
11:35 PM 66.2 °F - 57.2 °F 73% 30.00 in 10.0 mi Calm Calm - N/A   Clear
11:55 PM 64.4 °F - 57.2 °F 77% 30.00 in 10.0 mi NNE 5.8 mph - N/A   Clear